Weather Roundup
Issued by NWS Corpus Christi, TX

Home | Current Version | Previous Version | Text Only | Print | Product List | Glossary On
Versions: 1 2 3 4 5 6 7 8 9 10 11 12 13 14 15 16 17 18 19 20 21 22 23 24 25 26 27 28 29 30 31 32 33 34 35 36 37 38 39 40 41 42 43 44 45 46 47 48 49 50
000
ASUS44 KCRP 310110
HRRCRP

SOUTH TEXAS REGIONAL WEATHER ROUNDUP
NATIONAL WEATHER SERVICE CORPUS CHRISTI TX
800 PM CDT SAT AUG 30 2014


TXZ229>244-310200-
...CORPUS CHRISTI AREA OBSERVATIONS...

CITY           SKY/WX    TMP DP  RH WIND       PRES   REMARKS
CORPUS CHRISTI MOCLDY    81  75  82 SE16      29.90S
NAS CORPUS CHR MOCLDY    83  77  82 SE15      29.90S HX  92
ROCKPORT       MOCLDY    82  75  79 SE15      29.90S
KINGSVILLE NAS CLOUDY    79  78  97 SE13      29.90S
ALICE          CLOUDY    82  74  76 SE13      29.89R
FALFURRIAS     CLOUDY    75  68  79 E7        29.88F
$$

...VICTORIA AREA OBSERVATIONS...

CITY           SKY/WX    TMP DP  RH WIND       PRES   REMARKS
VICTORIA       CLEAR     83  74  74 SE15      29.91S
BEEVILLE       FAIR      83  70  65 SE14G22   29.90R
PLEASANTON     CLEAR     89  67  49 SE16      29.87R HX  91
SAN ANTONIO    PTCLDY    90  69  50 SE22      29.87S HX  94
$$

...LAREDO AREA OBSERVATIONS...

CITY           SKY/WX    TMP DP  RH WIND       PRES   REMARKS
LAREDO         CLEAR     89  72  57 SE20      29.88R HX  96
COTULLA        CLEAR     92  67  43 SE20G28   29.84R HX  95
DEL RIO        CLEAR     97  62  31 SE12      29.81F HX  98
MCALLEN        CLOUDY    83  77  82 E14       29.87S HX  92
HEBBRONVILLE   CLOUDY    82  71  68 E10       29.91S
$$

...OTHER TEXAS OBSERVATIONS...

CITY           SKY/WX    TMP DP  RH WIND       PRES   REMARKS
BROWNSVILLE    CLOUDY    81  76  84 E8        29.89S
HOUSTON        MOCLDY    82  75  78 S14       29.92R
COL. STATION   PTCLDY    88  69  53 S6        29.89R HX  92
AUSTIN         PTCLDY    90  69  50 SE13G20   29.87S HX  94
WACO           PTCLDY    87  68  52 E7        29.89S HX  90
FORT WORTH     PTCLDY    89  67  47 SE12      29.87R HX  92
WICHITA FALLS  CLEAR     90  64  42 NE3       29.87R HX  91
LUBBOCK        PTCLDY    88  52  29 SE12      29.97F
EL PASO        PTCLDY    92  43  18 S6        29.96F
$$

...MARINE OBSERVATIONS...

STATION/POSITION TIME  SKY/WX   TEMP    WIND        PRES    VSBY  WAVE   SWELL
                                AIR SEA DIR/SP/G                  HT/PER HT/PER
                 (UTC)          (F)     (DEG/KT/KT) (MB)    (MI)  (FT/S) (FT/S)
PORT ARANSAS     0100            81 84  120/ 15/ 16 1013.0F
BUOY 90 E PORT A 0100            80 85  140/ 14/ 16 1013.5F         5/ 7   3/ 7
BUOY 45 SE BAFFI 0100            82 85  140/ 16/ 19 1011.9R         4/ 7
BUOY 200 E PT IS 0100            83 86  330/  2/  6 1014.0F         5/ 7   5/ 7
BUOY 15 E GALVES 0100            80 85  170/ 14/ 16 1013.3F         4/ 8   3/ 8
$$



USA.gov is the U.S. government's official web portal to all federal, state and local government web resources and services.